www.pogodaiklimat.ru

Погода и климат >> Архив погоды >> Австралия >> Adelaide


АРХИВ ПОГОДЫ в Adelaide

Время (UTC), дата Ветер
(напр.,м/с)
 
Видим.   Явления Облачность Т
(С)
Тd
(С)
f
(%)
Тe
(С)
Тes
(С)
Комфортность P
(гПа)
Po
(гПа)
Тmin
(С)
Tmax
(С)
R
(мм)
R24
(мм)
S
(см)
16 11.06 З 10 н/о н/о +13.4 +10.9 85 +10 +10 тепло 1009.9 1008.9
17 11.06 З 10 н/о н/о +13.9 +10.5 80 +11 +11 тепло 1009.5 1008.5
18 11.06 З 12 н/о н/о +13.7 +9.8 77 +10 +10 по сезону 1009.6 1008.6
20 11.06 З 12 н/о н/о +13.2 +11.1 87 +10 +10 тепло 1009.5 1008.5
19 11.06 З 10 н/о н/о +13.7 +10.6 82 +11 +11 тепло 1009.6 1008.6
21 11.06 З 10 н/о н/о +12.9 +11.6 92 +9 +9 по сезону 1010.2 1009.2
22 11.06 З 10 н/о н/о +12.9 +11.4 91 +10 +10 тепло 1010.9 1009.9
23 11.06 З 11 н/о н/о +13.4 +10.9 85 +10 +10 по сезону 1011.6 1010.6
00 12.06 З 11 н/о н/о +13.4 +11.3 87 +10 +10 по сезону 1012.2 1011.2
02 12.06 З 10 н/о н/о +12.2 +10.3 88 +8 +8 по сезону 1012.6 1011.6
01 12.06 З 10 н/о н/о +12.6 +11.7 94 +9 +9 по сезону 1012.7 1011.7
03 12.06 ЮЗ 7 н/о н/о +13.6 +9.5 76 +11 +11 по сезону 1011.9 1010.9
04 12.06 З 9 н/о н/о +14.8 +5.5 54 +13 +13 по сезону 1011.8 1010.8
05 12.06 З 7 н/о н/о +14.9 +4.9 51 +13 +13 по сезону 1011.8 1010.8
06 12.06 З 7 н/о н/о +14.7 +6.2 57 +13 +13 по сезону 1011.8 1010.8
08 12.06 ЮЗ 8 н/о н/о +12.7 +9.1 79 +10 +10 по сезону 1012.2 1011.2
07 12.06 З 6 н/о н/о +14.5 +5.7 55 +13 +13 тепло 1012.1 1011.1
09 12.06 З 3 н/о н/о +13.4 +9.3 76 +12 +12 по сезону 1012.3 1011.3
10 12.06 В 3 н/о н/о +12.8 +8.8 77 +12 +12 тепло 1012.5 1011.5
11 12.06 СВ 3 н/о н/о +11.4 +9.4 88 +9 +9 по сезону 1012.5 1011.5
12 12.06 СВ 3 н/о н/о +10.9 +9.1 89 +9 +9 по сезону 1012.2 1011.2
14 12.06 С 4 н/о н/о +11.4 +10.0 91 +9 +9 тепло 1011.1 1010.1
13 12.06 С 3 н/о н/о +11.0 +9.4 90 +9 +9 тепло 1011.6 1010.6
15 12.06 С 4 н/о н/о +11.4 +9.6 89 +9 +9 по сезону 1010.7 1009.7
16 12.06 С 5 н/о н/о +11.6 +9.4 86 +9 +9 тепло 1010.3 1009.3
17 12.06 С 5 н/о н/о +10.0 +8.8 92 +7 +7 по сезону 1010.1 1009.1
18 12.06 С 5 н/о н/о +10.4 +8.6 89 +7 +7 по сезону 1009.5 1008.5
20 12.06 С 7 н/о н/о +12.5 +10.6 88 +10 +10 тепло 1008.4 1007.4
19 12.06 С 5 н/о н/о +11.3 +8.9 85 +9 +9 по сезону 1008.8 1007.8
21 12.06 СЗ 8 н/о н/о +12.4 +10.9 91 +9 +9 по сезону 1008.4 1007.4
22 12.06 СЗ 7 н/о н/о +12.9 +11.2 89 +10 +10 тепло 1008.2 1007.2
23 12.06 СЗ 7 н/о н/о +12.0 +9.8 86 +9 +9 по сезону 1008.7 1007.7
00 13.06 СЗ 8 н/о н/о +12.6 +10.9 89 +10 +10 по сезону 1009.1 1008.1
02 13.06 З 9 н/о н/о +14.8 +7.8 63 +13 +13 тепло 1009.7 1008.7
01 13.06 СЗ 9 н/о н/о +13.4 +10.3 81 +11 +11 по сезону 1009.5 1008.5
03 13.06 З 10 н/о н/о +14.7 +8.1 65 +12 +12 по сезону 1009.4 1008.4
04 13.06 ЮЗ 9 н/о н/о +14.1 +8.3 68 +12 +12 по сезону 1009.5 1008.5
05 13.06 З 5 н/о н/о +14.6 +7.8 64 +13 +13 по сезону 1009.5 1008.5
06 13.06 З 8 н/о н/о +14.7 +4.6 51 +13 +13 по сезону 1009.9 1008.9
08 13.06 З 7 н/о н/о +14.2 +3.9 50 +12 +12 тепло 1010.9 1009.9
07 13.06 З 5 н/о н/о +14.2 +6.3 59 +13 +13 тепло 1010.4 1009.4
09 13.06 З 7 н/о н/о +13.8 +6.0 59 +12 +12 по сезону 1011.5 1010.5
10 13.06 СЗ 6 н/о н/о +13.2 +7.9 70 +11 +11 тепло 1012.1 1011.1
11 13.06 З 11 н/о н/о +12.0 +8.8 81 +8 +8 по сезону 1012.5 1011.5
12 13.06 СЗ 6 н/о н/о +12.4 +10.1 86 +10 +10 по сезону 1012.4 1011.4
14 13.06 З 7 н/о н/о +13.0 +9.9 81 +10 +10 тепло 1012.2 1011.2
13 13.06 З 7 н/о н/о +11.9 +9.1 83 +9 +9 тепло 1012.2 1011.2
15 13.06 З 8 н/о н/о +13.1 +9.6 79 +10 +10 по сезону 1012.0 1011.0
16 13.06 З 8 н/о н/о +13.0 +9.5 79 +10 +10 тепло 1011.8 1010.8
17 13.06 З 8 н/о н/о +13.1 +10.0 81 +10 +10 тепло 1012.0 1011.0
18 13.06 СЗ 6 н/о н/о +13.4 +9.5 77 +11 +11 тепло 1011.8 1010.8
20 13.06 СЗ 6 н/о н/о +12.9 +9.8 81 +10 +10 тепло 1011.8 1010.8
19 13.06 СЗ 7 н/о н/о +13.0 +10.3 84 +10 +10 тепло 1011.8 1010.8
21 13.06 СЗ 6 н/о н/о +12.9 +10.0 83 +10 +10 по сезону 1011.8 1010.8
22 13.06 СЗ 7 н/о н/о +13.4 +10.3 81 +11 +11 тепло 1012.2 1011.2
23 13.06 СЗ 8 н/о н/о +13.5 +10.4 82 +11 +11 по сезону 1012.5 1011.5
00 14.06 С 7 н/о н/о +13.5 +11.0 85 +11 +11 по сезону 1012.7 1011.7
02 14.06 СЗ 10 н/о н/о +15.0 +10.9 76 +13 +13 тепло 1012.0 1011.0
01 14.06 СЗ 10 н/о н/о +13.6 +11.1 85 +11 +11 по сезону 1012.8 1011.8
03 14.06 СЗ 11 н/о н/о +15.5 +10.6 73 +13 +13 по сезону 1011.0 1010.0
04 14.06 СЗ 11 н/о н/о +16.1 +10.2 68 +14 +14 тепло 1010.4 1009.4
05 14.06 СЗ 12 н/о н/о +15.2 +10.2 72 +13 +13 по сезону 1009.9 1008.9
06 14.06 СЗ 11 н/о н/о +14.4 +11.4 82 +12 +12 по сезону 1010.0 1009.0
08 14.06 З 11 н/о н/о +13.1 +11.6 91 +10 +10 по сезону 1010.4 1009.4
07 14.06 СЗ 10 н/о н/о +15.1 +11.4 79 +13 +13 тепло 1009.0 1008.0
09 14.06 З 9 н/о н/о +14.4 +8.2 66 +12 +12 по сезону 1011.1 1010.1
10 14.06 З 10 н/о н/о +14.3 +6.2 58 +12 +12 тепло 1012.1 1011.1
11 14.06 З 9 н/о н/о +13.9 +6.2 60 +11 +11 тепло 1013.0 1012.0
12 14.06 З 10 н/о н/о +13.9 +3.8 51 +11 +11 по сезону 1013.4 1012.4
14 14.06 З 11 н/о н/о +12.8 +7.9 72 +9 +9 тепло 1014.2 1013.2
13 14.06 З 10 н/о н/о +13.6 +5.5 58 +11 +11 тепло 1013.7 1012.7
15 14.06 ЮЗ 7 н/о н/о +12.3 +8.2 76 +9 +9 по сезону 1014.2 1013.2
16 14.06 З 8 н/о н/о +13.0 +5.3 59 +10 +10 тепло 1014.3 1013.3
17 14.06 З 8 н/о н/о +13.0 +5.5 60 +10 +10 тепло 1014.9 1013.9
18 14.06 З 7 н/о н/о +12.0 +6.0 67 +9 +9 по сезону 1015.2 1014.2
20 14.06 З 12 н/о н/о +10.9 +7.6 80 +6 +6 по сезону 1015.8 1014.8
19 14.06 ЮЗ 11 н/о н/о +10.7 +7.4 80 +6 +6 по сезону 1015.4 1014.4
21 14.06 З 7 н/о н/о +11.3 +8.0 80 +8 +8 по сезону 1016.4 1015.4
22 14.06 З 7 н/о н/о +11.8 +8.1 78 +9 +9 по сезону 1017.3 1016.3
23 14.06 З 8 н/о н/о +11.5 +8.4 81 +8 +8 по сезону 1018.1 1017.1
00 15.06 З 9 н/о н/о +12.3 +8.7 79 +9 +9 по сезону 1018.6 1017.6
02 15.06 З 8 н/о н/о +12.8 +9.2 79 +10 +10 по сезону 1019.2 1018.2
01 15.06 З 8 н/о н/о +13.9 +9.4 74 +11 +11 по сезону 1019.0 1018.0
03 15.06 З 7 н/о н/о +14.4 +8.9 70 +12 +12 по сезону 1019.0 1018.0
04 15.06 З 7 н/о н/о +15.0 +8.4 65 +13 +13 тепло 1018.4 1017.4
05 15.06 З 9 н/о н/о +14.3 +6.9 61 +12 +12 по сезону 1018.4 1017.4
06 15.06 З 9 н/о н/о +14.9 +7.4 61 +13 +13 по сезону 1018.6 1017.6
08 15.06 З 8 н/о н/о +13.9 +7.6 66 +11 +11 тепло 1019.2 1018.2
07 15.06 З 8 н/о н/о +14.1 +7.8 66 +12 +12 тепло 1018.8 1017.8
09 15.06 ЮЗ 8 н/о н/о +12.6 +8.8 78 +10 +10 по сезону 1019.8 1018.8
10 15.06 З 7 н/о н/о +12.7 +9.3 80 +10 +10 тепло 1020.1 1019.1
11 15.06 З 8 н/о н/о +12.3 +9.3 82 +9 +9 по сезону 1020.3 1019.3
12 15.06 З 4 н/о н/о +12.3 +9.9 85 +10 +10 по сезону 1020.2 1019.2
14 15.06 З 6 н/о н/о +11.7 +8.9 83 +9 +9 тепло 1019.8 1018.8
13 15.06 З 5 н/о н/о +12.1 +9.5 84 +10 +10 тепло 1019.8 1018.8
15 15.06 З 7 н/о н/о +11.4 +8.6 83 +8 +8 по сезону 1019.2 1018.2
16 15.06 ЮЗ 7 н/о н/о +11.3 +6.9 74 +8 +8 тепло 1019.0 1018.0
17 15.06 ЮЗ 9 н/о н/о +10.9 +6.6 75 +7 +7 по сезону 1019.3 1018.3
18 15.06 ЮЗ 9 н/о н/о +11.8 +6.0 68 +8 +8 по сезону 1019.0 1018.0
20 15.06 ЮЗ 11 н/о н/о +11.4 +4.5 63 +7 +7 по сезону 1019.5 1018.5
19 15.06 ЮЗ 9 н/о н/о +11.5 +5.9 68 +8 +8 по сезону 1019.2 1018.2
21 15.06 ЮЗ 8 н/о н/о +11.3 +3.6 59 +8 +8 по сезону 1020.0 1019.0
22 15.06 Ю 7 н/о н/о +10.5 +5.2 70 +7 +7 по сезону 1020.5 1019.5
23 15.06 ЮЗ 7 н/о н/о +11.1 +4.7 65 +8 +8 по сезону 1021.0 1020.0
00 16.06 ЮЗ 8 н/о н/о +12.5 +4.8 59 +10 +10 по сезону 1021.7 1020.7
02 16.06 ЮЗ 9 н/о н/о +12.0 +5.3 64 +9 +9 по сезону 1021.8 1020.8
01 16.06 ЮЗ 9 н/о н/о +12.7 +4.6 58 +10 +10 по сезону 1022.0 1021.0
03 16.06 ЮЗ 11 н/о н/о +12.8 +4.2 56 +10 +10 по сезону 1021.2 1020.2
04 16.06 ЮЗ 11 н/о н/о +12.6 +5.5 62 +9 +9 по сезону 1020.4 1019.4
05 16.06 ЮЗ 10 н/о н/о +12.3 +5.9 65 +9 +9 прохладно 1020.3 1019.3
06 16.06 ЮЗ 12 н/о н/о +11.3 +5.9 69 +7 +7 холодно 1020.8 1019.8
08 16.06 Ю 6 н/о н/о +10.2 +5.6 73 +7 +7 по сезону 1021.7 1020.7
07 16.06 ЮЗ 9 н/о н/о +10.7 +5.2 69 +7 +7 по сезону 1021.1 1020.1
09 16.06 Ю 9 н/о н/о +11.1 +3.3 59 +8 +8 прохладно 1022.0 1021.0
10 16.06 Ю 10 н/о н/о +11.1 +2.4 55 +7 +7 по сезону 1023.2 1022.2
11 16.06 Ю 10 н/о н/о +11.3 +1.5 51 +8 +8 по сезону 1023.7 1022.7
12 16.06 Ю 5 н/о н/о +10.0 +3.8 65 +7 +7 по сезону 1024.3 1023.3
14 16.06 Ю 4 н/о н/о +10.8 +5.8 71 +9 +9 тепло 1024.9 1023.9
13 16.06 Ю 4 н/о н/о +8.9 +5.1 77 +6 +6 по сезону 1024.6 1023.6
15 16.06 Ю 5 н/о н/о +11.2 +5.3 67 +9 +9 по сезону 1024.9 1023.9
16 16.06 Ю 5 н/о н/о +10.0 +7.0 82 +7 +7 тепло 1024.9 1023.9
17 16.06 ЮЗ 9 н/о н/о +10.8 +8.1 83 +7 +7 по сезону 1025.1 1024.1
18 16.06 ЮЗ 8 н/о н/о +11.2 +7.0 75 +8 +8 по сезону 1024.9 1023.9
20 16.06 ЮЗ 9 н/о н/о +11.2 +7.4 77 +7 +7 по сезону 1025.2 1024.2
19 16.06 ЮЗ 9 н/о н/о +11.5 +6.1 69 +8 +8 по сезону 1024.8 1023.8
21 16.06 ЮЗ 9 н/о н/о +10.7 +8.0 83 +7 +7 по сезону 1025.7 1024.7
22 16.06 ЮЗ 5 н/о н/о +11.2 +7.4 77 +9 +9 по сезону 1026.3 1025.3
23 16.06 Ю 5 н/о н/о +11.2 +6.7 74 +9 +9 по сезону 1027.0 1026.0
00 17.06 Ю 7 н/о н/о +12.2 +6.5 68 +9 +9 по сезону 1027.7 1026.7
02 17.06 Ю 7 н/о н/о +12.8 +6.9 67 +10 +10 по сезону 1028.0 1027.0
01 17.06 Ю 8 н/о н/о +12.4 +7.2 71 +9 +9 по сезону 1028.1 1027.1
03 17.06 ЮЗ 8 н/о н/о +13.1 +6.8 66 +10 +10 по сезону 1027.4 1026.4
04 17.06 ЮЗ 8 н/о н/о +13.7 +5.6 58 +11 +11 по сезону 1027.0 1026.0
05 17.06 Ю 10 н/о н/о +12.8 +5.7 62 +10 +10 по сезону 1027.1 1026.1
06 17.06 ЮЗ 8 н/о н/о +12.2 +6.0 66 +9 +9 прохладно 1027.7 1026.7
08 17.06 Ю 2 н/о н/о +10.9 +7.3 78 +10 +10 тепло 1028.4 1027.4
07 17.06 ЮЗ 4 н/о н/о +10.9 +7.5 80 +8 +8 по сезону 1028.0 1027.0
09 17.06 ЮВ 3 н/о н/о +10.2 +6.1 76 +8 +8 прохладно 1028.7 1027.7
10 17.06 Ю 3 н/о н/о +10.7 +6.2 74 +9 +9 тепло 1029.2 1028.2
11 17.06 Ю 5 н/о н/о +10.8 +4.8 66 +8 +8 по сезону 1029.6 1028.6
12 17.06 Ю 3 н/о н/о +11.0 +3.1 58 +9 +9 по сезону 1029.8 1028.8
14 17.06 Ю 2 н/о н/о +9.3 +3.5 67 +8 +8 тепло 1029.8 1028.8
13 17.06 Ю 3 н/о н/о +10.4 +3.2 61 +9 +9 тепло 1029.8 1028.8
15 17.06 Ю 4 н/о н/о +10.6 +4.0 64 +9 +9 по сезону 1029.6 1028.6
16 17.06 Ю 2 н/о н/о +9.2 +5.2 76 +8 +8 тепло 1029.5 1028.5
17 17.06 В 3 н/о н/о +10.2 +4.6 68 +9 +9 тепло 1029.5 1028.5
18 17.06 ЮВ 3 н/о н/о +8.3 +4.6 77 +6 +6 по сезону 1029.8 1028.8
20 17.06 ЮВ 2 н/о н/о +6.0 +4.6 91 +3 +3 по сезону 1029.6 1028.6
19 17.06 ЮВ 3 н/о н/о +6.9 +4.6 85 +4 +4 прохладно 1029.8 1028.8
21 17.06 Ю 2 н/о н/о +7.4 +5.6 88 +5 +5 прохладно 1029.8 1028.8
22 17.06 штиль 0 н/о н/о +6.7 +5.6 93 +6 +6 по сезону 1030.6 1029.6
23 17.06 штиль 0 н/о н/о +8.6 +6.6 87 +8 +8 по сезону 1031.2 1030.2
00 18.06 Ю 2 н/о н/о +10.4 +7.4 82 +9 +9 по сезону 1031.6 1030.6
02 18.06 Ю 2 н/о н/о +12.3 +6.8 69 +12 +12 тепло 1031.2 1030.2
01 18.06 ЮВ 1 н/о н/о +11.7 +6.6 71 +12 +12 по сезону 1031.7 1030.7
03 18.06 З 3 н/о н/о +11.7 +6.8 72 +10 +10 по сезону 1030.3 1029.3
04 18.06 З 4 н/о н/о +11.7 +7.3 74 +10 +10 по сезону 1029.9 1028.9
05 18.06 З 3 н/о н/о +11.9 +7.3 73 +10 +10 по сезону 1029.1 1028.1
06 18.06 З 2 н/о н/о +11.8 +7.4 74 +11 +11 по сезону 1029.1 1028.1
08 18.06 ЮЗ 2 н/о н/о +11.6 +7.6 76 +11 +11 тепло 1029.1 1028.1
07 18.06 ЮЗ 2 н/о н/о +11.7 +7.5 75 +11 +11 по сезону 1029.2 1028.2
09 18.06 В 2 н/о н/о +11.5 +8.0 79 +11 +11 по сезону 1028.8 1027.8
10 18.06 В 2 н/о н/о +11.2 +7.9 80 +10 +10 тепло 1028.7 1027.7
11 18.06 В 3 н/о н/о +10.6 +7.9 83 +9 +9 по сезону 1028.1 1027.1
12 18.06 В 2 н/о н/о +10.5 +7.3 81 +9 +9 по сезону 1029.3 1028.3
14 18.06 В 4 н/о н/о +10.6 +4.5 66 +8 +8 тепло 1028.8 1027.8
13 18.06 В 3 н/о н/о +10.4 +6.0 74 +9 +9 тепло 1029.5 1028.5
15 18.06 СВ 3 н/о н/о +9.9 +4.7 70 +8 +8 по сезону 1028.3 1027.3
16 18.06 СВ 4 н/о н/о +9.7 +4.5 70 +7 +7 тепло 1028.1 1027.1

 

Местоположение метеостанции Adelaide (Южная Австралия, Австралия): широта -34.95 долгота 138.53 высота над уровнем моря 8 м.

В архиве по умолчанию представлена погода в Adelaide за последнюю неделю. Архивные данные за месяц целиком и за предыдущие месяцы, начиная с января 2011 года, Вы можете получить, выбрав интересующий диапазон дат из раскрывающегося списка и нажав кнопку "Ввод!".


*Определитесь, кто Вы:
робот инопланетянин человек

Внимание! Время в таблицах - всемирное. Для получения местного времени необходимо прибавить поправку, которая в Adelaide равна 9.5 ч.

Смотрите также архив погоды в соседних городах и на ближайших метеорологических станциях:

Погода в Adelaide (Kent Town) (Южная Австралия, Австралия) (9 км)
Погода в Mount Lofty (Южная Австралия, Австралия) (16 км)
Погода в Parafield Airport (Южная Австралия, Австралия) (21 км)
Погода в Noarlunga (Южная Австралия, Австралия) (25 км)
Погода в Kuitpo Forest Reserve (Южная Австралия, Австралия) (28 км)
Погода в Edinburgh Raaf (Южная Австралия, Австралия) (29 км)
Погода в Mount Crawford Aws (Южная Австралия, Австралия) (44 км)
Погода в Roseworthy Ag College (Южная Австралия, Австралия) (50 км)
Погода в Strathalbyn Racecourse (Южная Австралия, Австралия) (50 км)
Погода в Pallamana Aerodrome (Южная Австралия, Австралия) (65 км)

Пояснения к столбцам:

Ветер - указаны скорость ветра в м/с - средняя за 10 мин, порывы в срок и между сроками (в фигурных скобках) и направление, откуда дует ветер: С - северный, СВ - северо-восточный, В - восточный, ЮВ - юго-восточный, Ю - южный, ЮЗ - юго-западный, З - западный, СЗ - северо-западный.
Видимость - горизонтальная дальность видимости в метрах или километрах. При видимости от 1 до 10 км при отсутствии осадков обычно наблюдается дымка, при ухудшении видимости до 1 км и менее - туман. В сухую погоду видимость может ухудшаться дымом, пылью или мглою.
Явления - указаны атмосферные явления, наблюдавшиеся в срок или в последний час перед сроком; фигурными скобками обозначены явления, наблюдавшиеся между сроками (за 1-3 часа до срока); квадратными скобками обозначены град или гололедные отложения с указанием их диаметра в мм.
Облачность - указаны через наклонную черту общая и нижняя облачность в баллах и высота нижней границы облаков в метрах; квадратными скобками обозначены формы облаков: Ci - перистые, Cs - перисто-слоистые, Cc - перисто-кучевые, Ac - высококучевые, As - высокослоистые, Sc - слоисто-кучевые, Ns - слоисто-дождевые, Cu - кучевые, Cb - кучево-дождевые. Подробнее классификацию облаков см. в Атласе облаков (PDF).
T - Температура воздуха - температура, измеренная на высоте 2 м над землей.
Td - Температура точки росы - температура, при понижении до которой содержащийся в воздухе водяной пар достигнет насыщения.
f - Относительная влажность воздуха - влажноcть воздуха, измеренная на высоте 2 м над землей.
Te - Эффективная температура - температура, которую ощущает одетый по сезону человек в тени. Характеристика душности погоды. При расчете учитывается влияние влажности воздуха и скорости ветра на теплоощущения человека.
Tes - Эффективная температура на солнце - температура, которую ощущает человек, с поправкой на солнечный нагрев. Характеристика знойности погоды. Зависит от высоты солнца над горизонтом, облачности и скорости ветра. Ночью, в пасмурную погоду, а также при ветре 12 м/с и более поправка равна нулю.
P - Атмосферное давление - приведенное к уровню моря атмосферное давление.
Po - Атмосферное давление - измеренное на уровне метеостанции атмосферное давление.
Tmin - Минимальная температура - минимум температуры воздуха на высоте 2 м над землей.
Tmax - Максимальная температура - максимум температуры воздуха на высоте 2 м над землей.
R - Количество осадков - Количество выпавших осадков за период времени, мм. При наведении курсора мыши на число - период времени, за который выпало указанное количество осадков.
R24 - Количество осадков - Количество выпавших осадков за 24 часа, мм.
S - Снежный покров - Высота снежного покрова, см. При наведении курсора мыши на число - состояние снежного покрова и степень покрытия местности в баллах.